Погода в Таргоминде

Австралия     27°59′49″S   143°50′07″E
темп.,
°C
ветер,
м/с
пор.,
м/с
влажн.,
%
обл.,
%
осадки,
мм/ч
давл.,
гПа
погр.,
м
12 мая, ср
ср1201:00+12ююв511495 0.0 1020194
04:00+10ююв47593 0.0 1020114
07:00+9юв46650 0.0 102192
10:00+15юв44460 0.0 1021659
13:00+19ююв43300 0.0 10191267
16:00+20ю44250 0.0 10171352
19:00+15ю44330 0.0 101934
22:00+14ю45470 0.0 102049
13 мая, чт
чт1301:00+12юв44590 0.0 101937
04:00+11ююв33650 0.0 101820
07:00+10ююв33700 0.0 101911
10:00+17ююв33460 0.0 1019613
13:00+21ююз44330 0.0 10171326
16:00+22юз55300 0.0 10151389
19:00+17ююз56410 0.0 101865
22:00+15ююз33430 0.0 101817
14 мая, пт
пт1401:00+13ююз34410 0.0 101821
04:00+12ююз34390 0.0 101821
07:00+11ю56450 0.0 102078
10:00+17ююв78530 0.0 1021684
13:00+20ююв66350 0.0 10191323
16:00+21ю66331 0.0 10181484
19:00+15ю583444 0.0 102096
22:00+12ююв59400 0.0 1022122
15 мая, сб
сб1501:00+11ююв57465 0.0 102188
04:00+10ююв465310 0.0 102173
07:00+9ююв57625 0.0 102387
10:00+16юв684390 0.0 1024955
13:00+19ююв78340 0.0 10221486
16:00+20ююв88270 0.0 10211533
19:00+14ююв59380 0.0 1023112
22:00+12ююв59470 0.0 1025131
16 мая, вс
вс1601:00+10ююв58520 0.0 1025107
04:00+9юв510564 0.0 1025154
07:00+7юв59575 0.0 1026128
10:00+13юв783526 0.0 1027770
13:00+17юв67240 0.0 10251232
16:00+18юв67200 0.0 10231335
19:00+13ююв56290 0.0 102568
22:00+11юв58340 0.0 102689